Weather History for Bennington, VT

Change the Weather History Date:

Saturday, January 19, 2013

  Actual Average Record
Temperature  
Mean Temperature 34 °F 21 °F  
Max Temperature 45 °F 30 °F - ()
Min Temperature 23 °F 11 °F - ()
Degree Days  
Heating Degree Days 31 44  
Month to date heating degree days 714 832  
Since 1 July heating degree days 3159 3604  
Cooling Degree Days 0 0  
Month to date cooling degree days 0 0  
Year to date cooling degree days 0 0  
Moisture  
Dew Point 16 °F    
Average Humidity 42    
Maximum Humidity 47    
Minimum Humidity 37    
Precipitation  
Precipitation 0.00 in 0.08 in - ()
Month to date precipitation 0.43 1.84  
Year to date precipitation 0.43 1.84  
Sea Level Pressure  
Sea Level Pressure 30.02 in    
Wind  
Wind Speed 5 mph (SSW)    
Max Wind Speed 12 mph    
Max Gust Speed 16 mph    
Visibility 10 miles    
Events      
T = Trace of Precipitation, MM = Missing Value Source: NWS Daily Summary

Daily Weather History Graph

Daily Weather History Graph

Search for Another Location

Airport:

Trip Planner

Search our weather history database for the weather conditions in past years. The results will help you decide how hot, cold, wet, or windy it might be!

Date:

Astronomy

Jan. 19, 2013 Rise Set
Actual Time 7:18 AM EST 4:49 PM EST
Civil Twilight 6:47 AM EST 5:20 PM EST
Nautical Twilight 6:12 AM EST 5:55 PM EST
Astronomical Twilight 5:39 AM EST 6:28 PM EST
Moon 11:15 AM EST (1/19) 12:48 AM EST (1/19)
Length of Visible Light 10h 32m
Length of Day
9h 30m
First Quarter, 57% of the Moon is Illuminated
Jan 19
First Quarter
Jan 26
Full
Feb 3
Last Quarter
Feb 10
New
Feb 17
First Quarter

Hourly Weather History & Observations

Time (EST) Temp. Windchill Dew Point Humidity Pressure Visibility Wind Dir Wind Speed Gust Speed Precip Events Conditions
12:54 AM 24.1 °F 17.0 °F 6.1 °F 46% 30.25 in 10.0 mi SSW 5.8 mph - N/A   Overcast
1:54 AM 26.1 °F 20.5 °F 7.0 °F 44% 30.25 in 10.0 mi South 4.6 mph - N/A   Overcast
2:54 AM 25.0 °F - 7.0 °F 46% 30.20 in 10.0 mi Calm Calm - N/A   Overcast
3:54 AM 27.0 °F - 8.1 °F 45% 30.17 in 10.0 mi Calm Calm - N/A   Mostly Cloudy
4:54 AM 27.0 °F 20.5 °F 9.0 °F 47% 30.14 in 10.0 mi Variable 5.8 mph - N/A   Mostly Cloudy
5:54 AM 28.9 °F 22.8 °F 10.0 °F 45% 30.12 in 10.0 mi Variable 5.8 mph - N/A   Overcast
6:54 AM 30.0 °F 23.2 °F 12.0 °F 47% 30.12 in 10.0 mi WSW 6.9 mph - N/A   Overcast
7:54 AM 30.9 °F 27.5 °F 12.0 °F 46% 30.11 in 10.0 mi Variable 3.5 mph - N/A   Scattered Clouds
9:54 AM 35.1 °F 30.1 °F 16.0 °F 46% 30.09 in 10.0 mi Variable 5.8 mph - N/A   Clear
10:54 AM 36.0 °F 29.0 °F 16.0 °F 44% 30.07 in 10.0 mi SSW 9.2 mph - N/A   Mostly Cloudy
11:54 AM 39.0 °F 35.7 °F 17.1 °F 41% 30.02 in 10.0 mi Variable 4.6 mph - N/A   Partly Cloudy
12:54 PM 39.9 °F 33.9 °F 17.1 °F 40% 29.99 in 10.0 mi SSW 9.2 mph - N/A   Mostly Cloudy
1:54 PM 41.0 °F 39.0 °F 19.0 °F 41% 29.99 in 10.0 mi Variable 3.5 mph - N/A   Clear
2:54 PM 41.0 °F 35.8 °F 19.9 °F 43% 29.97 in 10.0 mi South 8.1 mph - N/A   Mostly Cloudy
3:54 PM 42.1 °F 38.4 °F 19.9 °F 41% 29.95 in 10.0 mi SSW 5.8 mph - N/A   Overcast
4:54 PM 42.1 °F 40.2 °F 19.9 °F 41% 29.95 in 10.0 mi Variable 3.5 mph - N/A   Overcast
5:54 PM 41.0 °F 38.0 °F 21.0 °F 45% 29.94 in 10.0 mi South 4.6 mph - N/A   Overcast
6:54 PM 42.1 °F 37.1 °F 21.0 °F 43% 29.93 in 10.0 mi SSW 8.1 mph - N/A   Overcast
7:54 PM 42.1 °F 37.1 °F 21.0 °F 43% 29.91 in 10.0 mi South 8.1 mph - N/A   Overcast
8:54 PM 42.1 °F 36.6 °F 19.9 °F 41% 29.88 in 10.0 mi SSW 9.2 mph - N/A   Mostly Cloudy
9:54 PM 44.1 °F 42.5 °F 19.9 °F 38% 29.84 in 10.0 mi Variable 3.5 mph - N/A   Overcast
10:54 PM 43.0 °F - 21.9 °F 43% 29.80 in 10.0 mi Calm Calm - N/A   Overcast
11:54 PM 45.0 °F 42.6 °F 21.0 °F 39% 29.79 in 10.0 mi Variable 4.6 mph - N/A   Overcast